Baltimore Martin, MD

7:51 AM EDT on May 29, 2017 (GMT -0400)
Martin State

Weather History for KMTN - September, 2012

Change the Weather History Date:

Wednesday, September 19, 2012

  Actual Average Record
Temperature  
Mean Temperature 61 °F -  
Max Temperature 69 °F 73 °F 84 °F (2005)
Min Temperature 53 °F 58 °F 48 °F (2013)
Degree Days  
Heating Degree Days 4    
Growing Degree Days 11 (Base 50)    
Moisture  
Dew Point 53 °F    
Average Humidity 73    
Maximum Humidity 100    
Minimum Humidity 35    
Precipitation  
Precipitation 0.07 in - - ()
Sea Level Pressure  
Sea Level Pressure 30.02 in    
Wind  
Wind Speed 8 mph (WNW)    
Max Wind Speed 16 mph    
Max Gust Speed 22 mph    
Visibility 10 miles    
Events Rain    
Averages and records for this station are not official NWS values.
T = Trace of Precipitation, MM = Missing Value Source: NWS Daily Summary

Daily Weather History Graph

Daily Weather History Graph

Search for Another Location

Airport or City:

Trip Planner

Search our weather history database for the weather conditions in past years. The results will help you decide how hot, cold, wet, or windy it might be!

Date:

Astronomy

Sep. 19, 2012 Rise Set
Actual Time 6:50 AM EDT 7:06 PM EDT
Civil Twilight 6:24 AM EDT 7:33 PM EDT
Nautical Twilight 5:52 AM EDT 8:04 PM EDT
Astronomical Twilight 5:20 AM EDT 8:36 PM EDT
Moon 10:56 AM EDT (9/19) 9:16 PM EDT (9/19)
Length of Visible Light 13h 09m
Length of Day
12h 15m
Waxing Crescent, 17% of the Moon is Illuminated
Sep 19
Waxing Crescent
Sep 22
First Quarter
Sep 29
Full
Oct 8
Last Quarter
Oct 15
New

Hourly Weather History & Observations

Time (EDT) Temp. Dew Point Humidity Pressure Visibility Wind Dir Wind Speed Gust Speed Precip Events Conditions
12:09 AM 69.8 °F 68.0 °F 94% 29.81 in 10.0 mi SW 5.8 mph - N/A Rain Light Rain
12:30 AM 62.6 °F 60.8 °F 94% 29.82 in 4.0 mi WNW 11.5 mph 21.9 mph 0.07 in Rain Rain
12:54 AM 62.6 °F 60.8 °F 94% 29.84 in 10.0 mi West 10.4 mph - 0.07 in   Overcast
1:15 AM 62.6 °F 62.6 °F 100% 29.84 in 10.0 mi WNW 5.8 mph - N/A   Overcast
1:36 AM 64.4 °F 60.8 °F 88% 29.85 in 10.0 mi West 16.1 mph - N/A   Overcast
1:57 AM 62.6 °F 59.0 °F 88% 29.87 in 10.0 mi West 12.7 mph - N/A   Mostly Cloudy
2:18 AM 62.6 °F 57.2 °F 82% 29.87 in 10.0 mi WNW 10.4 mph - N/A   Mostly Cloudy
2:39 AM 62.6 °F 57.2 °F 82% 29.88 in 10.0 mi WNW 5.8 mph - N/A   Overcast
3:00 AM 62.6 °F 57.2 °F 82% 29.88 in 10.0 mi WNW 6.9 mph 10.4 mph N/A   Overcast
3:21 AM 62.6 °F 57.2 °F 82% 29.88 in 10.0 mi WNW 8.1 mph - N/A   Overcast
3:42 AM 62.6 °F 55.4 °F 77% 29.89 in 10.0 mi WNW 9.2 mph - N/A   Overcast
4:06 AM 62.6 °F 55.4 °F 77% 29.90 in 10.0 mi WNW 8.1 mph - N/A   Overcast
4:27 AM 62.6 °F 55.4 °F 77% 29.92 in 10.0 mi WNW 9.2 mph - N/A   Overcast
4:48 AM 62.6 °F 53.6 °F 72% 29.93 in 10.0 mi WNW 6.9 mph - N/A   Overcast
5:30 AM 60.8 °F 53.6 °F 77% 29.94 in 10.0 mi WNW 8.1 mph - N/A   Mostly Cloudy
5:33 AM 60.8 °F 53.6 °F 77% 29.94 in 10.0 mi WNW 9.2 mph - N/A   Mostly Cloudy
5:55 AM 62.6 °F 53.6 °F 72% 29.96 in 10.0 mi NW 9.2 mph - N/A   Overcast
6:55 AM 60.8 °F 53.6 °F 77% 29.99 in 10.0 mi WNW 8.1 mph - N/A   Mostly Cloudy
7:55 AM 62.6 °F 53.6 °F 72% 30.03 in 10.0 mi NW 9.2 mph - N/A   Mostly Cloudy
8:55 AM 62.6 °F 53.6 °F 72% 30.05 in 10.0 mi NW 11.5 mph - N/A   Scattered Clouds
9:55 AM 64.4 °F 53.6 °F 68% 30.08 in 10.0 mi NW 10.4 mph - N/A   Scattered Clouds
10:55 AM 66.2 °F 50.0 °F 56% 30.09 in 10.0 mi NW 10.4 mph - N/A   Scattered Clouds
11:45 AM 68.0 °F 48.2 °F 49% 30.10 in 10.0 mi NNW 8.1 mph - N/A   Scattered Clouds
12:50 PM 68.0 °F 46.4 °F 46% 30.11 in 10.0 mi NW 8.1 mph - N/A   Mostly Cloudy
1:55 PM 68.0 °F 44.6 °F 43% 30.12 in 10.0 mi NW 10.4 mph 19.6 mph N/A   Scattered Clouds
2:45 PM 69.8 °F 44.6 °F 40% 30.11 in 10.0 mi NW 11.5 mph - N/A   Scattered Clouds
4:55 PM 69.8 °F 44.6 °F 40% 30.13 in 10.0 mi NW 6.9 mph - N/A   Scattered Clouds
5:45 PM 69.8 °F 41.0 °F 35% 30.13 in 10.0 mi NNW 3.5 mph - N/A   Partly Cloudy
6:50 PM 66.2 °F 42.8 °F 43% 30.15 in 10.0 mi NW 3.5 mph - N/A   Partly Cloudy
7:50 PM 62.6 °F 46.4 °F 55% 30.16 in 10.0 mi NNW 3.5 mph - N/A   Partly Cloudy
8:45 PM 59.0 °F 48.2 °F 67% 30.17 in 10.0 mi Calm Calm - N/A   Clear
9:50 PM 57.2 °F 48.2 °F 72% 30.18 in 10.0 mi Calm Calm - N/A   Clear
10:09 PM 55.4 °F 50.0 °F 82% 30.19 in 10.0 mi Calm Calm - N/A   Clear
10:30 PM 53.6 °F 50.0 °F 88% 30.19 in 10.0 mi Calm Calm - N/A   Clear
10:51 PM 53.6 °F 50.0 °F 88% 30.19 in 10.0 mi Calm Calm - N/A   Clear
11:12 PM 53.6 °F 50.0 °F 88% 30.19 in 10.0 mi Calm Calm - N/A   Clear
11:33 PM 53.6 °F 48.2 °F 82% 30.19 in 10.0 mi Calm Calm - N/A   Clear
11:57 PM 53.6 °F 48.2 °F 82% 30.18 in 10.0 mi Calm Calm - N/A   Clear